Location: Bay Shore Mobile Home Park
(38.5762°N, 75.0841°W)
Time: 15:33:40
(UTC+00:00)

STARLINK-11306 [DTC] - Pass Details

Date: 13 October 2024
Orbit: 359 x 361 km, 53.2° (Epoch: 04 November)

Event Time Altitude Azimuth Distance (km) Brightness Sun altitude
Exits shadow 08:14:04 - 100° (E) 2,046 7.3 -34.4°
Enters shadow 09:12:23 -65° 229° (SW) 11,919 10.4 -23.3°
Maximum altitude 09:47:02 55° 136° (SE) 438 3.3 -16.6°
